Regional Weather Roundup
Issued by NWS Spokane, WA

Home | Current Version | Previous Version | Text Only | Print | Product List | Glossary On
Versions: 1 2 3 4 5 6 7 8 9 10 11 12 13 14 15 16 17 18 19 20 21 22 23 24 25 26 27 28 29 30 31 32 33 34 35 36 37 38 39 40 41 42 43 44 45 46 47 48 49 50
000
NZUS01 KOTX 282210
RWROTX
EASTERN WASHINGTON/NORTHERN IDAHO ROUNDUP
NATIONAL WEATHER SERVICE, SPOKANE WA
200 PM PST FRI NOV 28 2014

Note: "fair" indicated few or no clouds below 12,000 feet with no
significant weather and/or obstructions to visibility.

...NORTHEAST WASHINGTON AND NORTHERN IDAHO PANHANDLE...

CITY           SKY/WX    TMP DP  RH WIND       PRES   REMARKS
SPOKANE INTL   CLOUDY    52  39  61 SW30G37   29.36F
SPOKANE DOWNTO CLOUDY    55  38  52 SW26G35   29.37F
COEUR D ALENE  CLOUDY    54  37  54 SW26      29.37F
DEER PARK      CLOUDY    52  39  61 SW23G45   29.35F
SANDPOINT      DRIZZLE   50  41  71 SW20G29   29.33F

...SOUTHEAST WASHINGTON AND SOUTHERN IDAHO PANHANDLE...

CITY           SKY/WX    TMP DP  RH WIND       PRES   REMARKS
WALLA WALLA    PTSUNNY   61  39  44 S24G39    29.46F
PULLMAN/MOSCOW CLOUDY    52  40  63 S14       29.48F
LEWISTON       CLOUDY    59  41  51 SW20G26   29.47F
LOWELL           N/A     43  42  97 CALM      29.56F

...COLUMBIA BASIN...

CITY           SKY/WX    TMP DP  RH WIND       PRES   REMARKS
EPHRATA        PTSUNNY   59  45  59 SW29G37   29.27F
MOSES LAKE     CLOUDY    59  44  57 S20G29    29.32F
TRI CITIES     CLOUDY    63  42  46 SW22G36   29.40F
HERMISTON      CLOUDY    64  40  41 SW17G26   29.45F
PENDLETON      CLOUDY    58  38  47 S26G38    29.49F

...EAST SLOPES CASCADES...

CITY           SKY/WX    TMP DP  RH WIND       PRES   REMARKS
THE DALLES     LGT RAIN  54  52  93 W3        29.46F FOG
YAKIMA         PTSUNNY   62  43  49 S21       29.36F
ELLENSBURG     PTSUNNY   52  45  77 NW6       29.34F
WENATCHEE      PTSUNNY   58  41  53 N6        29.27F
OMAK           CLOUDY    49  40  71 CALM      29.28F

...SOUTHERN BRITISH COLUMBIA...

CITY           SKY/WX    TMP DP  RH WIND       PRES   REMARKS
PENTICTON      CLOUDY    32  21  64 N20       29.47R WCI  20
CASTLEGAR      LGT RAIN  48  43  81 S3        29.24F
CRANBROOK      LGT RAIN  45  39  81 S15G21    29.19F

...WESTERN MONTANA...

CITY           SKY/WX    TMP DP  RH WIND       PRES   REMARKS
MISSOULA       CLOUDY    50  36  58 VRB6      29.50F

...NEIGHBORING CITIES...

CITY           SKY/WX    TMP DP  RH WIND       PRES   REMARKS
SEATTLE        RAIN      41  39  93 N13       29.48S
CALGARY        LGT SNOW  -6 -13  71 N20G26    29.66R WCI -29



USA.gov is the U.S. government's official web portal to all federal, state and local government web resources and services.